Weather History for Cross City, FL

Change the Weather History Date:

Thursday, August 22, 2013

  Actual Average Record
Temperature  
Mean Temperature 79 °F 81 °F  
Max Temperature 87 °F 91 °F 97 °F (2005)
Min Temperature 71 °F 72 °F 68 °F (2001)
Degree Days  
Heating Degree Days 0 0  
Month to date heating degree days 0 0  
Since 1 June heating degree days 0 0  
Since 1 July heating degree days 0 0  
Cooling Degree Days 14 16  
Month to date cooling degree days 395 362  
Year to date cooling degree days 1898 1796  
Since 1 June cooling degree days 1363 1317  
Growing Degree Days 28 (Base 50)    
Moisture  
Dew Point 74 °F    
Average Humidity 92    
Maximum Humidity 100    
Minimum Humidity 82    
Precipitation  
Precipitation 2.65 in 0.27 in 2.87 in (2008)
Month to date precipitation 8.49 5.13  
Year to date precipitation 51.39 33.05  
Sea Level Pressure  
Sea Level Pressure 30.08 in    
Wind  
Wind Speed 3 mph (ENE)    
Max Wind Speed 17 mph    
Max Gust Speed 22 mph    
T = Trace of Precipitation, MM = Missing Value Source: NWS Daily Summary

Daily Weather History Graph

Daily Weather History Graph

Search for Another Location

Airport:

Trip Planner

Search our weather history database for the weather conditions in past years. The results will help you decide how hot, cold, wet, or windy it might be!

Date:

Astronomy

Aug. 22, 2013 Rise Set
Actual Time 7:04 AM EDT 8:05 PM EDT
Civil Twilight 6:39 AM EDT 8:30 PM EDT
Nautical Twilight 6:10 AM EDT 8:59 PM EDT
Astronomical Twilight 5:40 AM EDT 9:29 PM EDT
Moon 9:03 PM EDT (8/22) 8:39 AM EDT (8/22)
Length of Visible Light 13h 50m
Length of Day
13h 01m
Waning Gibbous, 97% of the Moon is Illuminated
Aug 22
Waning Gibbous
Aug 28
Last Quarter
Sep 5
New
Sep 12
First Quarter
Sep 19
Full

Hourly Weather History & Observations

Time (EDT) Temp. Heat Index Dew Point Humidity Pressure Visibility Wind Dir Wind Speed Gust Speed Precip Events Conditions
12:53 AM 77.0 °F - 75.0 °F 94% 30.12 in - Calm Calm - N/A   Unknown
1:53 AM 75.9 °F - 73.9 °F 94% 30.10 in - Calm Calm - 0.01 in   Unknown
2:53 AM 75.9 °F - 75.0 °F 97% 30.09 in - Calm Calm - N/A   Unknown
3:53 AM 75.9 °F - 75.0 °F 97% 30.07 in - East 3.5 mph - N/A   Unknown
4:53 AM 75.9 °F - 75.0 °F 97% 30.06 in - Calm Calm - N/A   Unknown
5:53 AM 77.0 °F - 75.0 °F 94% 30.07 in - Calm Calm - N/A   Unknown
6:53 AM 77.0 °F - 75.0 °F 94% 30.07 in - Calm Calm - N/A   Unknown
7:53 AM 77.0 °F - 75.9 °F 96% 30.09 in - Calm Calm - N/A   Unknown
8:53 AM 79.0 °F - 77.0 °F 94% 30.11 in - ENE 4.6 mph - N/A   Unknown
9:53 AM 84.0 °F 94.8 °F 78.1 °F 82% 30.11 in - ESE 5.8 mph - N/A   Unknown
10:53 AM 84.0 °F 94.8 °F 78.1 °F 82% 30.12 in - Variable 3.5 mph - N/A   Unknown
11:53 AM 79.0 °F - 75.0 °F 88% 30.09 in - Calm Calm - 0.23 in   Unknown
12:53 PM 73.9 °F - 73.0 °F 97% 30.11 in - NW 16.1 mph - 0.48 in   Unknown
1:53 PM 73.0 °F - 71.1 °F 93% 30.13 in - NNE 4.6 mph - 1.41 in   Unknown
2:53 PM 72.0 °F - 70.0 °F 93% 30.12 in - North 8.1 mph - 0.33 in   Unknown
3:53 PM 73.0 °F - 72.0 °F 96% 30.09 in - Variable 5.8 mph - 0.15 in   Unknown
4:53 PM 75.0 °F - 73.0 °F 94% 30.06 in - Variable 5.8 mph - 0.03 in   Unknown
5:53 PM 78.1 °F - 73.0 °F 84% 30.05 in - ENE 4.6 mph - N/A   Unknown
6:53 PM 78.1 °F - 73.0 °F 84% 30.03 in - ESE 6.9 mph - N/A   Unknown
7:53 PM 75.9 °F - 72.0 °F 87% 30.03 in - ESE 3.5 mph - N/A   Unknown
8:53 PM 73.9 °F - 72.0 °F 93% 30.03 in - Calm Calm - N/A   Unknown
9:53 PM 73.0 °F - 72.0 °F 96% 30.04 in - NE 3.5 mph - 0.01 in   Unknown
10:53 PM 73.0 °F - 72.0 °F 96% 30.06 in - ENE 3.5 mph - N/A   Unknown
11:53 PM 73.0 °F - 72.0 °F 96% 30.06 in - Calm Calm - N/A   Unknown